loading
DOY 203 | 2024-07-21T11:15:53Z

DELTA 1 DEB, 1313

Orbit data source: Space-Track

DELTA 1 DEB, 1313 is space debris in LEO originally from a launch on Fri, 22 Jan 1965 UTC launched from the Air Force Eastern Test Range (AFETR). Debris objects in space refer to the collection of defunct objects orbiting the Earth. Examples of debris include non-operational satellites, rocket bodies, and fragments generated from explosions, collisions, or faulty payload assembly.

Loading next visibility...
Loading greatness...
DELTA 1 DEB details
NORAD ID1313
COSPAR ID
1965-004D
Orbit
LEO
Last TLE update1 day ago
Origin
Flag of USGSFC (US)
ManufacturerUnknown
BusUnknown
MotorUnknown
Mass~1 kg wet, ~1 kg dry
Launch date (UTC)
1965-01-22 (59 years ago)
Launch vehicleUnknown
Launch site
Air Force Eastern Test Range (AFETR)
Object type
Payload
Rocket body
Debris
Radar Cross SectionSmall (<0.1 m²)
Predictive object data (real-time)
Latitude67.00221°
Longitude-144.74361°
Altitude1,927.762 km
Speed6.831 km/s
Apparent Right ascension15h 00m 39s
Apparent Declination43° 56' 07"
Sunlit
Object is in daylight
Predictive observer data (real-time)
Local Sidereal Time00:14:16
Azimuth331.424° NNW
Elevation1.843°
Doppler factor1
Orbital elements
Apogee2,621.494 km
Perigee728.96 km
Semi-major axis8,053.364 km
Eccentricity0.1174996
Inclination96.4316°
RAAN118.9074°
Arg. of periapsis3.355°
True anomaly356.75952°
Mean anomaly357.4584°
Mean motion3.00315 °/min
BSTAR0.0011622
Period119.87 mins
Definitive object data (Epoch: 2024-07-20T10:43:09.6Z)
Latitude-0.00003°
Longitude19.40942°
Altitude735.066 km
Speed7.914 km/s
True Right ascension07h 55m 37s
True Declination0° 00' 00"
Sunlit
Object was in daylight at TLE epoch
TLE from 1 day ago
0 DELTA 1 DEB
1 01313U 65004D   24202.44663890  .00000764  00000-0  11622-2 0  9994
2 01313  96.4316 118.9074 1174996   3.3550 357.4584 12.00659867602820
Epoch: 2024-07-20T10:43Z
No data available
Other satellites on launch #4 in the year 1965 (1965-01-22 UTC)

DELTA 1 DEB Visibility forecast

Observer location: 39.9160978°, -105.1181434

DELTA 1 DEB is not visible in the next 10 days
Span
Click to sort rows by Start time (UTC) header in descending order
Start Az.
Max El. time (UTC)
Max El. Az.
Max El.
End time (UTC)
End Az.